GFSGBSN_925_thetae_159.txt.gz
Theta_e
322 322 322 323 323 323 323 323 322 320 318 318 317 317 316 316 316 316 315 314 312 312 313 317 315 320 327 335 333 319 312 317 320 322 325 336 340 336 337 344 349 353 353 352 351 351 351
321 322 322 322 323 323 323 323 323 322 320 319 318 317 317 316 316 316 316 315 313 313 314 317 317 320 332 336 331 323 319 322 322 321 323 331 337 333 334 344 351 351 353 353 351 352 351
321 321 322 322 323 323 323 324 323 323 322 321 319 318 318 317 316 316 316 315 314 314 314 317 318 325 333 332 329 327 323 322 321 322 325 331 331 330 337 348 349 351 356 354 353 353 352
322 322 322 323 323 323 323 323 324 324 323 323 321 319 318 318 317 317 316 314 314 315 315 317 320 329 335 327 327 324 323 323 322 322 324 329 328 328 339 348 351 353 355 362 356 353 352
323 323 323 323 324 324 324 323 323 324 324 323 323 321 320 319 318 317 314 314 321 318 316 319 329 333 334 329 326 324 321 322 323 322 323 325 324 330 343 348 352 352 358 357 358 353 354
322 322 322 322 322 323 323 323 323 323 324 324 323 323 321 320 319 317 313 320 319 323 322 327 329 332 328 328 325 322 320 321 323 323 326 327 328 334 339 342 353 353 353 349 359 355 354
322 321 320 320 321 322 322 323 323 323 323 324 324 323 322 321 319 315 318 327 333 334 332 332 331 330 328 324 322 323 320 321 322 322 328 328 330 334 336 339 342 347 348 343 349 353 353
320 319 319 319 319 321 322 323 323 322 323 324 324 324 323 321 320 315 316 327 327 324 328 329 328 328 327 324 324 325 322 324 323 324 326 326 327 329 333 335 340 342 345 342 344 351 353
319 318 317 317 318 318 319 319 320 321 322 322 323 323 323 322 319 316 324 325 324 324 329 330 327 327 328 326 326 326 325 324 324 324 325 326 326 327 328 331 337 338 340 338 339 345 349
319 319 316 315 316 317 317 317 318 319 320 321 322 322 322 321 322 325 322 325 323 324 331 333 330 328 328 328 328 327 324 325 323 324 325 324 325 325 327 327 331 335 334 336 335 342 358
312 314 313 312 315 315 316 317 318 318 320 321 322 321 321 318 321 326 323 322 322 325 336 332 330 328 328 329 329 326 324 325 324 322 323 323 323 324 323 324 328 332 335 333 333 338 349
306 310 312 312 313 314 315 318 319 318 319 321 322 321 319 321 322 325 323 322 323 331 332 332 330 330 330 329 328 326 324 325 325 324 323 324 325 322 322 323 325 328 333 335 336 338 346
305 307 309 310 312 314 316 318 319 318 319 320 321 320 317 318 326 323 322 323 327 328 331 333 331 330 329 329 328 327 325 325 325 325 326 324 326 325 325 324 323 327 332 338 338 338 343
305 311 312 312 313 314 316 318 318 317 318 320 321 319 321 319 323 322 322 325 329 329 328 332 331 330 329 329 329 328 328 327 326 326 327 327 326 326 325 324 324 326 331 335 347 345 346
308 311 311 311 312 313 315 317 317 316 318 320 320 323 323 324 323 322 325 327 330 330 328 328 331 331 330 330 329 329 329 329 329 326 327 327 328 326 325 326 329 326 331 331 337 340 343
308 309 311 311 312 314 314 316 316 316 318 319 319 323 325 321 322 323 326 325 329 328 326 327 332 331 331 330 330 331 330 329 328 326 327 330 330 327 326 326 327 332 331 332 334 343 345
307 309 311 312 312 313 313 315 316 316 319 320 322 327 324 321 323 326 328 328 327 327 326 327 328 331 332 332 332 331 331 330 329 327 327 329 330 332 328 327 328 329 331 331 332 333 336
306 308 310 311 312 313 314 315 316 315 318 320 325 329 325 322 325 327 328 328 319 327 326 326 326 329 331 331 332 332 332 331 329 328 328 328 330 334 331 330 329 332 330 330 331 334 333
304 307 309 311 312 313 313 314 314 314 315 317 328 327 325 323 328 328 327 326 326 326 326 326 325 325 328 329 332 331 331 330 330 329 329 329 329 332 335 333 331 330 330 331 332 333 341
306 306 307 310 311 312 313 314 315 313 314 315 327 330 330 329 328 329 330 327 328 325 325 325 325 324 324 329 330 332 331 330 330 330 333 331 331 331 335 338 336 333 330 331 331 332 333
306 306 307 310 311 313 314 314 314 313 315 316 328 329 328 333 331 330 329 330 329 329 326 327 325 326 325 326 330 331 332 331 330 332 330 330 333 333 332 334 335 334 332 332 333 333 335
306 305 307 310 311 312 313 314 313 313 316 321 325 328 328 328 327 328 324 328 330 329 329 331 330 329 328 329 328 331 330 331 331 331 333 331 333 333 334 333 334 333 332 332 333 334 334
306 307 308 309 310 311 312 315 314 313 315 321 321 322 324 325 326 327 327 327 327 327 328 329 329 331 331 330 330 331 331 332 333 334 335 334 333 335 335 336 334 332 332 332 332 332 333
305 306 307 308 309 310 312 315 315 313 313 317 318 319 324 326 325 326 326 325 326 326 327 326 327 329 330 328 328 328 329 330 331 332 332 336 336 336 335 334 337 335 332 332 331 331 333
305 306 306 308 309 309 311 313 314 314 313 315 317 318 321 325 324 324 324 324 325 325 325 324 324 324 324 324 326 329 331 331 329 328 331 332 334 336 339 335 336 336 333 333 332 331 332
305 305 306 307 307 309 311 313 313 314 313 314 316 316 319 322 324 324 325 324 326 325 326 326 324 324 324 326 329 332 333 333 332 330 330 330 332 334 336 338 341 339 333 332 331 334 332
304 303 305 306 306 308 311 313 314 314 312 313 316 317 317 320 320 319 321 323 323 325 325 325 324 324 324 326 328 329 331 331 334 334 334 333 333 334 336 338 338 334 330 332 334 333 333
302 302 302 304 306 306 309 312 312 311 311 313 315 316 317 319 319 318 319 320 321 322 325 324 325 325 324 327 328 329 329 330 333 335 335 336 335 335 335 337 338 331 332 335 332 335 333
302 302 303 303 305 306 306 309 311 310 310 311 314 315 315 315 317 315 315 317 318 319 321 322 324 324 328 333 333 334 340 334 336 338 334 338 336 334 335 335 340 336 333 333 331 333 334

GFSGBSN_925_thetae_162.txt.gz
Theta_e
321 322 322 323 323 323 323 323 323 323 322 321 318 318 317 317 316 316 316 315 314 313 313 315 316 317 326 334 335 317 314 314 319 322 329 332 339 339 336 342 348 355 352 352 351 351 353
322 322 323 323 323 323 323 323 324 324 323 323 321 320 319 318 317 316 316 316 315 314 314 315 316 319 329 337 328 318 318 320 323 323 326 330 338 336 333 340 351 349 352 352 351 351 351
323 323 323 323 324 324 324 323 323 324 324 324 323 322 321 320 319 318 316 315 315 314 314 315 316 324 332 336 331 324 320 323 324 323 325 327 333 333 333 348 348 350 356 353 354 353 353
323 322 322 322 322 322 322 323 323 323 323 324 324 323 322 321 320 319 317 314 314 315 315 316 317 328 338 330 328 328 324 323 323 324 324 327 333 332 331 346 344 355 358 354 355 351 350
322 321 321 321 320 321 322 323 323 323 323 324 324 324 323 322 321 320 316 313 318 321 317 316 324 331 335 329 325 326 324 324 323 324 325 327 329 331 331 348 354 353 355 352 358 352 350
321 320 320 319 319 320 321 322 323 323 323 324 324 324 323 323 321 320 315 318 323 320 320 326 328 334 334 330 327 325 321 323 324 324 325 327 331 331 331 337 357 355 353 353 358 358 354
320 319 318 317 318 318 319 319 320 320 321 322 323 323 323 323 322 319 314 326 332 332 333 331 334 332 331 325 325 323 322 322 324 323 324 328 332 331 332 336 345 346 346 350 354 356 356
318 319 318 316 315 316 316 317 318 319 318 320 322 322 323 323 322 319 315 327 329 327 328 332 332 331 329 325 324 325 322 323 323 323 323 328 329 329 331 335 345 349 349 349 353 350 357
312 312 314 313 313 314 315 316 317 318 318 320 321 322 321 321 321 318 320 326 326 325 328 330 330 329 329 327 325 326 323 324 323 323 325 327 328 327 329 330 335 345 346 345 342 346 350
307 308 309 309 310 312 313 315 318 319 318 319 321 322 321 320 322 326 326 324 325 325 330 331 330 328 329 328 327 327 326 325 326 325 325 326 326 326 327 328 331 333 336 340 338 338 347
304 304 306 307 309 311 314 316 318 319 318 317 320 321 321 319 320 327 327 324 324 325 334 332 331 329 329 328 330 327 327 326 325 324 324 325 325 324 325 326 327 330 335 337 336 336 339
303 304 309 311 312 313 314 316 317 317 317 316 320 320 321 322 322 325 327 325 323 329 332 334 331 330 330 329 330 328 327 326 326 325 324 324 326 324 324 325 325 327 332 336 336 336 337
304 308 310 311 311 312 313 314 315 316 317 317 319 318 319 319 325 327 325 324 326 328 330 333 332 331 329 330 330 328 326 325 326 325 326 325 324 326 324 323 324 324 327 331 337 337 338
306 307 309 311 311 312 314 313 314 317 315 317 317 317 320 321 324 325 325 324 327 329 328 330 333 331 330 330 330 329 327 326 326 326 327 329 327 325 326 325 325 324 325 330 341 352 351
306 308 310 311 312 312 312 313 314 315 316 318 318 322 325 327 323 325 327 327 328 330 331 330 330 333 331 330 330 330 329 330 329 328 327 329 329 327 327 326 326 325 326 328 332 344 352
305 306 309 310 311 312 312 313 314 314 314 317 318 324 327 326 324 324 329 327 328 329 330 328 329 332 332 331 330 331 331 331 330 330 328 328 330 327 327 326 326 329 328 329 331 340 352
304 305 308 310 311 312 313 313 313 314 315 319 322 331 327 325 324 327 330 329 329 328 329 329 329 330 332 332 332 332 331 331 331 329 328 327 329 334 330 326 326 327 332 332 332 334 339
305 306 307 309 310 312 313 314 315 314 314 318 325 332 328 325 327 328 330 329 325 329 329 329 328 328 330 331 334 334 334 332 331 329 328 327 328 333 334 329 328 328 331 332 332 337 334
306 307 306 307 310 312 313 313 315 313 313 315 327 330 327 326 329 330 329 328 328 328 328 328 329 328 328 330 333 332 333 333 332 330 329 330 329 331 332 335 330 329 330 332 331 332 337
307 306 306 307 310 312 313 313 313 312 313 315 326 330 330 330 329 330 330 332 331 327 327 326 328 328 328 327 328 331 332 331 331 331 335 330 330 331 331 340 339 338 331 331 331 334 336
307 307 306 309 310 311 312 313 313 313 313 316 329 330 330 332 333 333 332 331 331 332 331 327 328 327 327 328 327 328 330 332 332 338 331 330 330 331 332 336 337 338 337 335 330 332 333
307 307 307 308 309 310 311 314 314 312 313 321 328 327 326 328 328 328 327 331 328 329 330 331 331 329 329 328 329 328 328 332 333 332 331 330 336 331 332 332 334 337 338 338 331 333 333
306 306 306 307 309 309 311 313 313 313 314 321 321 321 325 326 326 327 327 328 328 329 328 329 330 332 332 331 332 331 331 331 332 333 333 334 336 338 335 331 337 344 340 337 334 335 335
305 306 306 307 309 308 310 312 313 313 313 315 319 320 323 326 326 326 326 327 327 327 328 328 329 329 329 329 330 330 330 330 331 333 333 338 341 342 336 337 339 335 337 336 332 332 331
305 306 305 307 306 308 310 312 313 313 314 315 317 319 322 324 324 324 325 326 326 326 326 326 326 326 326 327 328 330 330 331 331 331 332 333 337 339 341 339 337 335 335 336 334 334 331
305 305 304 306 306 306 309 312 313 313 313 314 316 318 320 322 325 323 324 325 326 325 325 325 325 326 325 326 326 329 329 330 330 331 330 330 334 338 337 338 340 339 335 335 336 337 332
303 302 303 303 305 306 307 310 312 312 312 312 315 317 317 322 321 321 324 324 323 325 326 326 326 326 325 326 328 328 329 328 331 332 337 335 336 337 336 338 336 336 334 334 342 339 334
302 302 303 303 303 305 306 307 311 311 311 312 314 316 318 320 320 319 319 321 322 323 324 324 325 326 327 326 327 327 327 328 329 333 336 338 342 338 339 340 340 336 336 337 338 335 334
301 301 304 305 303 304 305 306 307 310 311 310 312 316 315 316 318 315 315 316 317 319 322 322 323 326 329 330 332 334 339 335 335 338 333 335 338 340 335 337 340 339 336 334 333 338 335

GFSGBSN_925_thetae_165.txt.gz
Theta_e
322 323 323 323 323 323 323 323 323 323 324 324 323 322 321 320 319 318 316 315 315 314 313 313 316 316 325 332 328 328 320 318 316 317 325 328 329 332 337 342 352 356 358 352 351 351 354
323 323 322 322 322 322 322 323 323 322 323 323 324 323 323 321 320 319 318 316 315 315 314 314 315 317 327 333 330 325 316 315 319 321 323 324 329 332 333 339 350 349 353 353 352 353 352
322 322 321 321 321 321 322 322 323 324 323 323 323 324 323 323 322 320 319 316 314 315 314 314 315 322 330 332 328 322 319 319 320 323 321 324 326 329 330 334 351 351 352 349 352 352 352
321 321 320 319 320 320 322 323 323 323 323 323 323 323 324 323 322 321 320 315 314 315 315 315 315 327 331 331 330 324 320 322 323 324 324 324 325 331 332 338 349 357 353 356 355 355 351
319 320 318 317 315 318 319 320 319 320 321 321 322 323 323 323 323 322 320 314 316 320 319 315 320 327 333 329 326 326 326 323 322 323 323 325 326 327 328 329 356 353 355 351 357 349 353
318 318 319 317 314 314 315 317 317 317 318 317 319 321 321 322 322 322 321 315 321 320 321 325 325 329 332 333 330 325 325 324 323 322 323 323 324 327 327 326 338 359 354 350 356 358 356
312 311 313 313 311 312 314 314 316 317 318 317 318 319 319 320 321 321 320 321 329 328 329 330 330 330 332 332 326 325 322 322 322 323 320 322 322 328 328 328 345 348 347 350 348 348 353
307 307 308 309 309 310 312 314 316 318 318 317 317 319 319 318 319 320 318 320 326 326 325 331 331 330 330 325 323 323 322 320 320 321 320 320 323 327 329 338 340 344 347 349 349 350 355
305 305 304 307 308 310 312 314 316 317 317 317 316 318 320 319 319 322 318 320 323 323 324 326 326 332 331 324 323 323 319 320 321 322 321 320 323 328 327 329 345 344 346 349 350 353 355
304 304 308 310 311 311 312 313 314 314 315 317 315 317 319 319 322 322 325 326 325 324 325 328 327 328 331 327 325 325 322 321 323 321 320 321 324 326 325 325 333 331 341 346 344 350 354
304 304 307 308 310 311 312 313 312 312 314 315 313 316 318 318 320 323 325 327 324 323 332 332 329 329 326 326 327 326 324 323 323 324 323 322 323 324 323 324 325 326 328 336 338 337 334
304 304 306 308 309 310 310 312 311 311 314 311 312 315 317 319 321 322 325 326 325 326 333 332 329 327 326 326 327 326 325 324 324 324 322 321 322 322 322 323 323 324 323 329 336 334 333
305 305 307 308 310 310 310 311 312 311 312 309 312 313 316 315 322 323 325 325 323 327 329 332 330 328 327 328 328 326 326 323 322 324 322 323 322 321 324 321 321 322 319 323 328 332 346
305 305 306 308 310 311 312 312 312 312 312 309 313 315 319 318 320 324 323 326 326 327 325 326 330 329 328 328 328 328 325 323 323 323 322 324 325 321 323 321 320 319 316 319 330 349 347
304 304 305 308 310 311 312 313 313 315 312 312 316 319 323 326 324 323 327 328 327 328 328 329 329 331 330 328 328 328 326 325 324 323 322 324 325 326 323 324 322 321 319 318 321 345 348
305 304 305 307 308 310 312 313 314 313 312 315 318 321 327 326 324 325 329 328 327 326 327 328 328 329 330 329 328 327 328 328 328 327 323 325 326 324 325 324 323 322 322 321 320 339 350
306 306 306 306 307 310 312 313 313 313 313 316 319 329 328 326 325 326 329 329 328 327 328 329 328 329 328 329 329 329 329 330 329 329 326 325 324 325 331 324 322 321 323 327 326 330 340
307 307 305 306 308 310 312 313 313 313 313 314 322 333 327 326 327 327 328 328 325 328 328 328 328 328 328 328 328 329 332 332 331 329 328 325 323 326 331 331 325 324 323 326 330 331 332
308 308 306 307 309 309 311 312 314 313 312 313 322 327 328 326 328 328 328 329 328 328 327 328 328 328 328 328 328 328 329 330 333 331 331 327 323 324 327 331 330 325 324 326 327 325 333
307 308 306 307 309 309 310 312 314 312 312 314 322 333 331 329 328 329 330 331 329 330 330 326 326 326 326 327 327 328 328 329 330 330 332 327 326 328 327 333 336 338 336 335 336 330 336
307 307 307 308 308 309 309 312 313 312 312 315 326 331 326 331 329 328 328 330 333 332 330 330 331 327 327 327 328 328 328 326 329 333 333 328 330 331 329 336 337 335 333 333 334 336 334
307 307 306 306 308 308 308 311 313 312 313 320 326 325 323 324 326 326 325 328 328 327 327 327 330 331 330 330 329 328 328 328 333 332 333 328 329 333 332 331 334 335 335 335 337 337 335
306 306 307 306 309 308 308 310 313 313 314 318 318 320 322 323 324 324 326 326 327 327 329 328 329 330 331 329 327 328 328 327 328 330 331 334 332 335 333 331 331 339 337 337 337 337 337
305 306 306 306 308 307 308 311 313 313 314 315 316 319 323 325 323 324 325 325 326 327 328 326 327 328 327 325 325 326 327 328 328 328 328 331 339 340 340 339 340 333 334 336 336 337 335
305 306 304 304 306 307 306 310 313 313 313 312 316 318 322 323 322 322 323 324 325 326 327 326 325 324 324 325 326 328 327 329 331 329 328 328 335 337 339 340 338 335 336 336 339 338 335
304 303 303 304 303 304 306 307 311 312 312 312 314 316 318 321 323 320 323 324 325 325 326 326 324 324 325 325 327 331 330 331 332 329 327 327 328 333 336 339 341 336 336 336 334 339 335
302 303 303 303 304 303 305 306 307 311 311 310 314 315 317 320 318 319 322 322 321 323 324 324 323 324 324 328 327 327 327 328 329 329 329 330 333 332 332 336 335 337 335 335 338 336 336
302 302 302 305 304 303 305 306 306 307 310 311 311 314 316 318 317 316 318 318 319 321 325 324 324 327 329 332 331 329 330 327 327 327 330 331 335 336 332 332 334 334 335 334 334 334 334
302 301 301 304 304 304 304 305 306 306 308 310 312 311 312 316 316 315 314 314 314 315 319 320 323 323 326 328 330 329 331 334 335 338 334 341 336 341 340 340 333 334 333 335 332 333 333

GFSGBSN_925_thetae_168.txt.gz
Theta_e
322 322 322 321 320 322 321 322 323 323 322 323 323 323 323 322 322 321 320 317 315 315 314 313 314 316 325 331 322 328 322 320 319 316 321 325 328 329 332 346 350 354 351 353 353 350 349
322 321 320 320 319 319 322 322 323 323 322 323 322 323 323 323 322 322 321 318 315 314 314 314 313 317 327 327 331 332 322 318 317 316 321 323 326 327 328 349 350 353 355 354 353 353 351
321 320 319 317 315 316 319 321 319 319 319 320 321 322 322 323 322 322 321 320 314 314 314 314 313 322 327 324 328 324 316 316 317 318 320 322 322 322 328 353 349 349 352 353 355 354 353
318 316 318 317 314 315 315 316 316 317 317 317 317 319 320 320 321 321 321 321 314 315 317 315 315 325 325 323 324 322 319 320 318 321 322 323 322 325 331 349 351 349 352 355 353 352 352
312 311 312 312 310 311 312 313 314 316 316 317 316 316 317 318 319 320 321 320 315 320 317 314 320 326 330 332 328 329 320 320 321 322 322 323 323 324 327 340 352 354 357 352 360 354 353
307 307 307 308 307 309 310 313 315 316 317 317 316 313 315 316 317 318 319 318 320 320 323 323 324 323 326 331 328 326 323 323 321 320 321 322 319 322 322 323 329 353 352 352 355 353 347
305 305 305 307 308 310 311 311 313 314 314 315 316 313 313 316 318 318 319 316 324 325 325 324 324 324 328 332 331 327 325 322 321 320 320 319 320 320 321 324 326 336 347 350 351 353 354
305 304 307 308 309 310 311 312 312 312 311 312 314 312 312 316 317 318 319 315 321 324 320 325 328 326 326 328 323 322 321 318 319 319 319 317 317 319 322 326 340 345 347 350 351 351 354
304 304 306 308 309 310 309 311 311 311 310 313 312 310 312 315 317 322 320 319 325 322 318 320 327 328 328 327 323 320 317 317 319 319 319 317 318 320 321 325 331 341 343 347 351 353 355
305 305 307 308 310 310 310 310 311 310 309 309 309 310 311 314 321 319 320 325 323 321 319 322 324 324 328 322 322 321 320 318 318 319 319 317 319 320 320 324 339 342 342 345 354 358 359
305 305 306 307 308 310 311 311 311 311 310 309 309 309 310 314 315 320 322 324 326 320 324 327 324 326 325 325 324 320 319 319 320 320 317 318 321 321 321 321 332 327 329 343 350 355 353
305 304 305 306 308 309 311 312 312 313 313 310 310 311 314 315 315 319 321 323 323 321 329 329 327 326 324 324 325 322 319 321 321 321 321 320 320 319 319 321 321 323 322 319 328 333 335
305 304 304 305 306 308 310 312 312 312 311 309 310 312 315 315 316 321 321 318 317 322 324 329 327 325 324 325 325 322 322 321 320 322 320 320 321 320 320 321 318 321 314 316 321 325 336
305 304 305 305 306 308 311 312 312 312 312 310 313 316 318 320 317 321 323 318 323 323 322 322 325 325 325 324 324 323 321 321 319 319 319 321 321 321 321 320 318 316 314 315 321 339 343
305 305 306 305 306 308 310 312 312 313 312 312 314 318 320 324 323 321 319 324 320 322 325 325 324 325 325 325 326 325 321 323 320 318 320 318 321 322 321 320 318 318 317 314 327 337 337
307 306 306 305 305 308 310 312 312 313 311 311 316 319 323 324 324 322 322 325 323 325 325 324 326 326 327 327 326 324 323 322 323 321 318 320 322 322 322 321 320 318 317 318 316 333 341
308 307 306 305 306 307 309 311 312 312 311 311 320 321 327 326 323 318 324 324 325 325 326 327 326 326 325 326 326 326 326 326 325 325 320 319 321 323 325 321 320 318 318 320 317 323 336
309 308 307 306 307 307 308 311 312 312 312 311 315 327 326 326 320 318 321 324 324 325 325 325 325 324 326 326 325 325 327 326 326 326 323 319 318 321 321 324 321 319 318 316 321 327 328
307 308 307 307 307 307 308 310 312 312 313 312 312 316 325 324 322 321 321 324 325 326 326 325 325 325 324 325 326 326 326 326 326 328 327 321 317 320 320 321 326 323 322 325 320 320 325
307 308 307 307 308 307 308 309 311 312 313 313 315 324 320 318 318 324 324 325 326 327 328 325 326 323 324 324 323 326 326 326 324 326 340 327 318 319 321 322 327 333 333 332 328 326 333
306 307 307 308 309 307 308 310 313 312 313 317 317 323 320 322 321 322 322 323 325 326 325 323 324 325 325 324 324 325 325 324 326 331 328 322 324 324 323 325 334 332 332 330 332 329 333
307 306 307 306 310 307 307 311 313 312 313 319 317 317 316 318 318 319 320 322 324 324 325 325 326 328 323 325 325 326 325 326 328 326 326 324 327 326 328 331 333 332 333 334 335 334 333
306 305 307 305 307 307 307 309 312 312 312 314 315 317 315 318 318 320 320 322 324 324 325 325 325 326 326 325 324 322 320 321 323 327 325 327 329 330 331 330 330 335 332 332 333 335 333
305 305 304 304 305 306 307 307 311 312 311 312 315 315 316 321 320 321 321 322 323 323 324 323 322 322 323 320 321 321 321 321 324 324 322 326 329 331 332 332 336 329 328 331 333 334 333
304 303 303 304 304 304 305 308 308 311 311 311 313 315 318 320 320 320 319 322 321 320 321 322 322 320 318 320 321 323 322 324 326 326 325 323 328 329 334 334 332 333 334 335 335 334 334
303 303 303 303 304 304 304 307 306 308 310 310 314 315 316 317 316 317 319 320 319 319 320 321 319 317 319 319 322 325 327 327 326 326 321 321 323 327 331 335 337 332 333 332 331 335 334
302 303 302 303 305 304 306 306 306 306 307 310 310 311 314 315 313 315 317 317 317 318 319 319 319 319 320 324 324 323 325 324 327 326 325 323 326 331 328 332 331 331 333 331 335 334 333
302 302 302 302 304 304 305 305 305 306 306 309 308 312 312 314 314 314 314 315 314 314 318 317 319 319 320 327 332 331 329 327 329 325 325 325 328 329 328 330 332 333 335 333 330 329 334
302 302 302 301 303 304 305 305 305 306 306 308 310 308 310 311 312 313 313 312 312 313 313 313 317 317 319 321 324 323 327 328 330 333 332 336 332 334 333 331 332 331 332 328 328 330 331

GFSGBSN_925_thetae_174.txt.gz
Theta_e
314 314 315 313 311 311 313 313 315 315 315 316 316 315 316 317 317 318 318 319 319 315 314 314 313 315 323 323 318 325 320 314 319 320 317 323 326 326 326 347 350 354 348 355 351 350 350
309 310 310 309 308 309 310 311 312 313 313 315 316 315 313 313 315 316 317 318 319 315 314 314 313 316 326 317 324 329 318 313 319 317 317 323 326 324 347 348 350 350 355 351 349 349 349
306 306 306 308 309 310 310 310 311 312 311 312 313 314 313 311 313 315 317 318 319 314 315 314 314 320 321 317 324 327 317 315 319 318 317 320 325 320 344 349 344 348 352 351 355 350 350
305 306 307 309 310 310 309 310 311 310 309 309 311 312 311 311 311 314 316 317 318 315 317 315 315 321 319 322 328 323 320 317 318 317 317 320 321 320 344 344 345 351 346 351 352 353 351
305 305 307 308 309 309 308 309 310 310 309 308 308 309 309 309 310 313 315 317 317 317 316 314 322 324 324 327 325 322 317 317 315 316 319 320 319 329 340 344 341 346 349 350 349 351 352
306 306 307 307 308 309 309 310 311 310 310 310 309 309 309 309 310 312 314 318 320 319 318 322 323 320 320 324 328 323 317 318 318 316 318 318 314 318 321 330 332 335 347 350 348 353 350
306 305 306 306 307 308 310 311 311 311 310 310 309 309 310 310 311 312 316 320 315 318 325 321 323 319 321 325 324 322 320 317 318 317 318 316 318 319 321 325 324 333 344 345 349 351 350
306 305 305 305 306 307 309 311 311 312 311 311 310 309 310 311 312 317 318 309 317 319 320 317 322 321 322 324 325 321 321 320 318 319 316 316 317 317 319 319 321 324 335 344 349 350 351
306 305 305 306 306 306 309 311 311 311 311 311 311 310 310 312 313 319 316 318 320 320 317 318 318 322 323 323 324 324 318 316 317 317 316 316 319 316 318 318 319 331 340 347 348 353 352
306 305 306 306 306 306 309 310 311 311 311 311 311 311 311 312 317 315 317 321 319 320 313 316 320 323 324 323 326 323 319 316 316 317 314 316 316 319 318 318 318 318 331 340 352 354 351
308 307 307 306 306 306 308 309 310 310 310 310 311 311 310 312 314 314 320 318 320 314 318 319 322 323 322 324 322 323 316 317 316 316 315 317 316 318 318 317 318 319 326 335 352 350 350
309 308 307 306 306 306 308 308 309 309 310 311 312 311 312 314 314 316 317 321 316 315 319 323 322 324 323 324 323 317 317 317 315 317 317 316 317 317 318 318 321 322 323 318 327 340 348
310 309 307 307 306 306 308 307 308 309 309 311 312 313 314 314 314 318 319 312 315 318 318 321 324 324 324 324 325 318 317 317 316 318 319 318 318 318 317 318 318 314 315 316 330 348 348
311 309 307 306 306 306 307 307 308 309 310 311 313 318 318 317 316 316 318 315 317 316 319 320 323 322 325 322 324 319 317 317 316 316 315 318 320 318 317 319 318 314 313 314 317 318 327
309 309 307 307 306 306 307 308 309 310 311 312 315 320 321 321 317 320 314 319 319 315 321 323 323 324 323 323 324 321 318 317 317 315 320 317 319 318 317 316 316 314 314 312 321 327 332
311 309 307 308 307 306 307 308 310 310 311 316 316 319 320 321 319 319 316 318 319 319 323 324 325 323 326 325 325 321 319 319 320 316 317 318 320 319 321 317 316 315 312 315 313 324 329
307 309 308 309 307 306 307 308 309 310 312 320 314 318 321 320 318 315 319 318 322 321 322 325 325 326 326 325 322 321 323 322 320 319 316 315 318 322 322 319 317 316 314 312 311 313 316
307 308 308 309 307 306 306 308 309 310 313 319 310 322 321 321 318 313 319 321 320 323 323 323 323 323 324 324 323 323 323 323 323 317 317 315 315 321 320 319 318 316 315 314 315 317 318
306 307 309 308 307 306 307 308 309 310 314 313 313 314 320 318 321 319 319 322 323 323 323 323 323 322 321 321 322 321 322 323 323 323 319 316 317 320 321 320 319 319 314 314 313 315 327
306 307 308 306 306 305 307 307 309 310 314 316 315 322 316 313 313 320 320 322 322 321 322 321 321 321 323 322 319 322 325 324 324 326 335 322 314 319 325 324 321 325 320 317 318 320 320
305 306 306 307 307 305 305 307 309 310 314 315 312 316 314 320 319 317 317 318 322 323 321 320 323 323 323 324 323 324 324 322 324 327 324 318 321 316 318 320 324 326 327 324 324 323 329
305 305 304 306 307 306 304 306 307 310 313 314 314 314 312 314 313 317 316 320 322 323 322 323 323 323 322 324 323 323 322 322 323 323 323 321 326 322 324 324 321 330 328 327 327 327 330
305 304 304 305 308 307 305 305 306 308 311 312 312 313 312 312 316 316 317 320 322 321 321 321 321 321 321 321 320 319 317 318 318 323 323 323 326 325 328 331 331 332 328 328 330 328 329
305 303 304 304 308 307 307 305 305 306 307 310 311 310 312 314 317 319 319 318 319 321 321 319 319 321 319 317 316 316 314 315 316 318 317 323 324 327 330 329 334 327 324 326 331 331 328
305 303 303 303 305 307 308 307 305 305 306 310 311 311 310 312 314 316 317 318 317 316 317 319 319 318 314 316 318 319 320 321 320 319 317 318 321 326 333 330 328 332 331 329 328 329 330
304 303 303 303 303 306 308 309 306 305 306 307 310 310 309 315 311 315 316 316 316 315 315 317 315 312 315 316 318 323 324 323 324 324 316 317 318 326 327 333 336 330 331 333 328 331 330
303 303 303 303 302 304 306 307 307 305 306 306 308 309 310 313 309 312 314 314 313 314 314 312 312 311 314 319 322 322 323 321 324 325 323 320 322 326 327 329 327 327 332 331 334 332 329
303 303 303 302 302 302 304 306 306 304 304 305 306 308 308 307 308 309 311 312 312 311 314 311 311 313 315 320 324 324 325 325 328 322 322 322 323 324 324 327 330 330 332 333 327 326 329
303 303 303 302 302 301 303 306 306 304 304 304 305 305 306 306 306 309 310 310 311 311 309 308 310 311 313 317 319 317 321 322 324 330 326 329 324 327 324 327 324 328 329 326 325 326 328